Location: Ladd Observatory
(41.8387°N, 71.3996°W)
Time: 04:11:21
(UTC-04:00)

ISS - Visible Passes

Search period start: 01 October 2014 00:00
Search period end: 11 October 2014 00:00
Orbit: 413 x 416 km, 51.6° (Epoch: 01 October)

Date Brightness Start Highest point End Pass type
(mag) Time Alt. Az. Time Alt. Az. Time Alt. Az.
01 Oct -0.1 04:05:27 12° E 04:05:27 12° E 04:05:44 10° ESE visible
01 Oct -2.0 05:38:22 22° WSW 05:39:04 24° SW 05:41:47 10° S visible
02 Oct -1.1 04:52:12 18° SSE 04:52:12 18° SSE 04:53:14 10° SSE visible
05 Oct -0.4 20:37:53 10° SW 20:38:13 12° SW 20:38:13 12° SW visible
06 Oct -2.8 19:48:51 10° SSW 19:51:42 42° SSE 19:51:42 42° SSE visible
07 Oct -2.0 19:00:07 10° SSW 19:02:54 25° SE 19:04:59 14° E visible
07 Oct -0.9 20:36:16 10° WSW 20:37:51 24° W 20:37:51 24° W visible
08 Oct -3.1 19:46:49 10° WSW 19:50:08 69° NNW 19:50:57 46° NNE visible
09 Oct -3.3 18:57:33 10° SW 19:00:51 69° SE 19:03:54 12° ENE visible
09 Oct -0.7 20:35:01 10° WNW 20:36:46 20° NW 20:36:46 20° NW visible
10 Oct -1.8 19:45:17 10° W 19:48:19 32° NNW 19:49:35 24° NNE visible
